Simultaneous Nadir Overpasses (SNOs) Predictions

Prediction of SNOs between TERRA and METOP-C Satellite Orbit:

Table of predicted SNOs for the next 14.0 days since TLE Epoch: 8/24/2024
Index Date (TERRA) Time (TERRA) Lat,Lon (TERRA) SZA (TERRA ) Date (METOP-C) Time (METOP-C) Lat,Lon (METOP-C) SZA (METOP-C ) Distance(km) Time Diff (sec)
1 08/24/2024 03:40:21 81.69,-163.52 76.45 08/24/2024 03:41:33 80.90,-164.83 76.06 90.87 72
2 08/26/2024 16:38:19 67.50, -84.07 58.18 08/26/2024 16:37:06 67.61, -84.84 58.41 34.88 73
3 08/26/2024 17:25:25 -74.86, 95.61 115.26 08/26/2024 17:25:27 -74.87, 95.68 115.25 2.25 2
4 08/29/2024 07:06:50 73.12, 66.51 64.01 08/29/2024 07:05:37 73.11, 66.46 64.02 1.92 73
5 08/29/2024 07:55:43 -74.61,-122.60 114.58 08/29/2024 07:55:48 -74.61,-122.59 114.58 0.38 5
6 08/31/2024 21:36:59 73.27,-150.77 65.09 08/31/2024 21:35:49 73.28,-150.73 65.10 1.54 70
7 08/31/2024 22:25:54 -74.66, 19.94 113.59 08/31/2024 22:26:02 -74.67, 20.03 113.58 2.90 8
8 09/03/2024 12:07:18 72.78, -9.30 65.58 09/03/2024 12:06:13 72.77, -9.37 65.59 2.47 65
9 09/03/2024 12:56:12 -74.25, 161.39 113.04 09/03/2024 12:56:25 -74.24, 161.32 113.05 2.21 13
10 09/06/2024 02:37:29 72.72, 132.99 66.48 09/06/2024 02:36:29 72.71, 132.94 66.48 2.26 60



Historial Predications of SNOs between TERRA and METOP-C
